Weather History for Lancaster, CA

Change the Weather History Date:

Sunday, August 24, 2014

  Actual Average Record
Temperature  
Mean Temperature 78 °F 80 °F  
Max Temperature 91 °F 97 °F 108 °F (2010)
Min Temperature 64 °F 63 °F 47 °F (1949)
Degree Days  
Heating Degree Days 0    
Month to date heating degree days 0  
Since 1 June heating degree days 0  
Since 1 July heating degree days 0  
Cooling Degree Days 13    
Month to date cooling degree days 361  
Year to date cooling degree days 1548  
Since 1 June cooling degree days 1348  
Growing Degree Days 28 (Base 50)    
Moisture  
Dew Point 34 °F    
Average Humidity 28    
Maximum Humidity 47    
Minimum Humidity 9    
Precipitation  
Precipitation 0.00 in 0.00 in 0.47 in (1988)
Month to date precipitation 0.03 0.07  
Year to date precipitation 2.35 5.07  
Since 1 July precipitation 0.03 0.16  
Snow  
Snow 0.00 in - 0.00 in ()
Month to date snowfall 0.0  
Since 1 June snowfall 0.0  
Since 1 July snowfall 0.0  
Snow Depth 0.00 in    
Sea Level Pressure  
Sea Level Pressure 29.84 in    
Wind  
Wind Speed 16 mph (WSW)    
Max Wind Speed 26 mph    
Max Gust Speed 35 mph    
Visibility 10 miles    
Events      
T = Trace of Precipitation, MM = Missing Value Source: NWS Daily Summary

Daily Weather History Graph

Daily Weather History Graph

Search for Another Location

Airport:

Trip Planner

Search our weather history database for the weather conditions in past years. The results will help you decide how hot, cold, wet, or windy it might be!

Date:

Astronomy

Aug. 24, 2014 Rise Set
Actual Time 6:20 AM PDT 7:29 PM PDT
Civil Twilight 5:53 AM PDT 7:55 PM PDT
Nautical Twilight 5:22 AM PDT 8:26 PM PDT
Astronomical Twilight 4:50 AM PDT 8:59 PM PDT
Moon 5:34 AM PDT (8/24) 6:52 PM PDT (8/24)
Length of Visible Light 14h 01m
Length of Day
13h 09m
Waning Crescent, 1% of the Moon is Illuminated
Aug 24
Waning Crescent
Aug 25
New
Sep 2
First Quarter
Sep 8
Full
Sep 15
Last Quarter

Hourly Weather History & Observations

Time (PDT) Temp. Dew Point Humidity Pressure Visibility Wind Dir Wind Speed Gust Speed Precip Events Conditions
12:56 AM 68.0 °F 37.9 °F 33% 29.86 in 10.0 mi WSW 18.4 mph - N/A   Clear
1:56 AM 68.0 °F 37.9 °F 33% 29.85 in 10.0 mi WSW 19.6 mph - N/A   Clear
2:56 AM 68.0 °F 32.0 °F 26% 29.85 in 10.0 mi WSW 18.4 mph - N/A   Clear
3:56 AM 66.9 °F 26.1 °F 21% 29.85 in 10.0 mi WSW 20.7 mph - N/A   Clear
4:56 AM 66.9 °F 28.9 °F 24% 29.85 in 10.0 mi WSW 17.3 mph - N/A   Clear
5:56 AM 66.0 °F 27.0 °F 23% 29.86 in 10.0 mi WSW 15.0 mph - N/A   Clear
6:56 AM 66.0 °F 25.0 °F 21% 29.88 in 10.0 mi West 9.2 mph - N/A   Clear
7:56 AM 72.0 °F 23.0 °F 16% 29.88 in 10.0 mi West 9.2 mph - N/A   Clear
8:56 AM 77.0 °F 21.9 °F 13% 29.88 in 10.0 mi WSW 12.7 mph - N/A   Clear
9:56 AM 81.0 °F 21.9 °F 11% 29.87 in 10.0 mi WSW 11.5 mph - N/A   Clear
10:56 AM 82.9 °F 28.0 °F 14% 29.86 in 10.0 mi WSW 11.5 mph 20.7 mph N/A   Clear
11:56 AM 86.0 °F 26.1 °F 11% 29.85 in 10.0 mi SW 15.0 mph 23.0 mph N/A   Clear
12:56 PM 88.0 °F 25.0 °F 10% 29.83 in 10.0 mi WSW 18.4 mph - N/A   Clear
1:56 PM 89.1 °F 28.9 °F 12% 29.81 in 10.0 mi WSW 19.6 mph 27.6 mph N/A   Clear
2:56 PM 90.0 °F 24.1 °F 9% 29.79 in 10.0 mi SW 18.4 mph 24.2 mph N/A   Clear
3:56 PM 88.0 °F 35.1 °F 15% 29.78 in 10.0 mi SW 18.4 mph 27.6 mph N/A   Clear
4:56 PM 86.0 °F 37.9 °F 18% 29.78 in 10.0 mi SW 23.0 mph 29.9 mph N/A   Clear
5:56 PM 82.0 °F 41.0 °F 23% 29.78 in 10.0 mi SW 21.9 mph 31.1 mph N/A   Clear
6:56 PM 78.1 °F 45.0 °F 31% 29.79 in 10.0 mi WSW 19.6 mph 28.8 mph N/A   Clear
7:56 PM 73.0 °F 46.9 °F 39% 29.80 in 10.0 mi West 16.1 mph - N/A   Clear
8:56 PM 72.0 °F 48.0 °F 43% 29.83 in 10.0 mi WSW 15.0 mph - N/A   Clear
9:56 PM 70.0 °F 48.0 °F 46% 29.85 in 10.0 mi West 9.2 mph - N/A   Clear
10:56 PM 70.0 °F 46.9 °F 44% 29.86 in 10.0 mi West 8.1 mph - N/A   Clear
11:56 PM 69.1 °F 48.9 °F 49% 29.86 in 10.0 mi West 18.4 mph 26.5 mph N/A   Clear